Torna al catalogo

BREEZE-M DEB

TANK

AttivoHEO
NORAD 38979·DEBRIS·🇷🇺 Russia

Lanciato Nov 2, 2012 da Baikonur Cosmodrome

Loading…

Prossimi Passaggi (prossime 24 ore)

TLE

AggiornatoSource: Space-Track

Epoca: Sep 11, 2026, 04:16 UTC

1 38979U 12061C   26254.17792379  .00000134  00000-0  47605-3 0  9993
2 38979  46.9003 153.3005 7100500 119.5070 327.9140  2.27849688113750

Traccia BREEZE-M DEB in tempo reale con AllMySat

Download on the App Store